Vancouver Int'l Airport, British Columbia

Past 24 Hour Conditions

Date / Time
(PDT)
Conditions Temp
(°C)
Humidity
(%)
Dew Point
(°C)
Wind
(km/h)
Pressure
(kPa)
Visibility
(km)
25 October 2014
2:00 Light Rain 10 87 8 N 8 100.8 24
1:00 Light Rain 10 86 8 NNE 9 100.9 24
00:00 Mostly Cloudy 10 83 8 ESE 8 101.0 32
24 October 2014
23:00 Mostly Cloudy 10 81 7 E 6 101.1 48
22:00 Mostly Cloudy 11 82 8 N 2 101.2 48
21:00 Mostly Cloudy 11 76 7 E 9 101.2 48
20:00 Mostly Cloudy 11 77 7 E 6 101.3 48
19:00 Mostly Cloudy 10 82 7 NNE 4 101.3 48
18:00 Mostly Cloudy 11 81 8 NW 6 101.4 48
17:00 Mostly Cloudy 13 72 8 NE 9 101.4 48
16:00 Mostly Cloudy 13 67 8 NNE 10 101.5 32
15:00 Mostly Cloudy 14   66 7 NE 14 101.6 32
14:00 Mostly Cloudy 13 66 7 ENE 13 101.7 32
13:00 Mostly Cloudy 13 69 7 ENE 16 101.8 32
12:00 Mostly Cloudy 12 72 7 ENE 14 101.8 32
11:00 Mostly Cloudy 12 79 8 ENE 13 101.9 32
10:00 Mostly Cloudy 11 84 8 ENE 15 101.9 32
9:00 Mostly Cloudy 10 87 8 ENE 16 101.8 24
8:00 Mostly Cloudy 9   94 8 E 15 101.8 24
7:00 Mostly Cloudy 9   93 8 E 10 101.8 24
6:00 Mostly Cloudy 9   91 8 ENE 10 101.7 24
5:00 Mostly Cloudy 9   91 8 ENE 9 101.7 24
4:00 Mostly Cloudy 9   90 8 ENE 8 101.7 24
3:00 Mostly Cloudy 10 90 8 ENE 11 101.7 24
2:00 Mostly Cloudy 9   92 8 NE 11 101.7 24
N/A Not available
↑ Highest temperature
↓ Lowest temperature

If you require additional historical weather information, please visit Climate Data Online.

Date modified: